Lexington Weather

Lexington, Massachusetts, USA

61°F
10/23/2020 5:06pm 
  • Lexington Conditions: Overcast
  • Temperature: 60.8°F / 16.0°CColder 3.1°F than last hour.
  • Dew Point: 54.7°FDecreased 2.5°Fsince last hour.
  • Relative Humidity: 80%Increased 1.0% since last hour.
  • Wind: Wind from SW SW 1 mph, 10-min avg: 2 mph, gust: 4 mph
  • Barometer: 30.09 in Steady
  • Visibility: 10 miles
  • Rain Today: 0.00 in
  •   

Regional Weather Roundup
for Boston / Norton, MA

        
000
ASUS41 KBOX 220404
RWRBOX

REGIONAL WEATHER ROUNDUP
NATIONAL WEATHER SERVICE BOSTON/NORTON MA
1200 AM EDT THU OCT 22 2020

NOTE:  "FAIR" INDICATES FEW OR NO CLOUDS BELOW 12,000 FEET WITH NO 
SIGNIFICANT WEATHER AND/OR OBSTRUCTIONS TO VISIBILITY.

MAZALL-220500-
EASTERN MASSACHUSETTS
  
CITY           SKY/WX    TMP DP  RH WIND       PRES   REMARKS
BOSTON         PTCLDY    65  62  90 SW10      30.19F                  
BEVERLY        PTCLDY    65  62  90 SW6       30.18S                  
LAWRENCE       MOCLDY    64  62  93 SW6       30.20S                  
BEDFORD        PTCLDY    66  62  87 SW7       30.18S                  
BLUE HILL        N/A     64  62  93 SW13      30.20S                  
NORWOOD        MOCLDY    68  62  81 SW8       30.20S                  
MARSHFIELD     CLOUDY    68  66  94 SW10G20   30.20S                  
PLYMOUTH       CLOUDY    66  63  90 SW10      30.22S                  
TAUNTON        CLOUDY    66  64  93 VRB6      30.22S FOG              
NEW BEDFORD    CLOUDY    65  64  97 SW9       30.22S FOG              
$$

MAZALL-220500-
CAPE COD AND THE ISLANDS
  
CITY           SKY/WX    TMP DP  RH WIND       PRES   REMARKS
FALMOUTH       CLOUDY    64  64 100 SW12      30.24R FOG              
HYANNIS        FOG       64  64 100 S8        30.22S VSB 1/2          
CHATHAM        CLOUDY    62  61  96 SW6       30.25S FOG              
PROVINCETOWN   FOG       63  63 100 SW13      30.23R VSB 3/4          
NANTUCKET      CLEAR    N/A N/A N/A SW5       30.25S                  
MARTHAS VNYRD  FOG       64  64 100 SW7       30.24S VSB 3/4          
$$
 
MAZALL-220500-
CENTRAL AND WESTERN MASSACHUSETTS
  
CITY           SKY/WX    TMP DP  RH WIND       PRES   REMARKS
WORCESTER      CLOUDY    66  61  84 W14       30.22S                  
FITCHBURG      PTCLDY    68  62  81 VRB3      30.19S                  
ORANGE         PTCLDY    62  61  96 S5        30.22S                  
SPRINGFIELD    PTCLDY    64  64 100 S5        30.20S                  
WESTFIELD      PTCLDY    64  63  96 CALM      30.21R                  
NORTH ADAMS    CLOUDY    65  59  81 NW7       30.23R                  
PITTSFIELD     CLOUDY    64  60  87 SW6       30.23R                  
$$
 
RIZALL-220500-
RHODE ISLAND
  
CITY           SKY/WX    TMP DP  RH WIND       PRES   REMARKS
PROVIDENCE     CLOUDY    67  65  93 SW8       30.23S                  
NEWPORT        FOG       62  62 100 SW5       30.23F VSB 1/4          
BLOCK ISLAND   LGT RAIN  62  61  96 W7        30.25S VSB 1/4          
SMITHFIELD     CLOUDY    66  66 100 VRB5        N/A                   
WESTERLY       FOG       63  62  97 SW3       30.24F VSB 1/2          
$$
 
CTZALL-220500-
CONNECTICUT
  
CITY           SKY/WX    TMP DP  RH WIND       PRES   REMARKS
BRADLEY INTL   MOCLDY    66  63  90 S9        30.20F                  
HARTFORD       CLOUDY    67  63  87 S7        30.22F                  
BRIDGEPORT     FOG       66  65  96 SW3       30.23S VSB 1/2          
DANBURY        CLOUDY    65  64  97 CALM      30.24S                  
GROTON         FOG       63  63 100 W7        30.23F VSB 1            
NEW HAVEN      FOG       66  66 100 S5        30.23S VSB 3/4          
CHESTER        FOG       64  64 100 SW6       30.24S VSB 1/4          
MERIDEN        CLOUDY    65  63  93 CALM      30.23S FOG              
WILLIMANTIC    CLOUDY    67  64  90 SW3       30.23S                  
OXFORD         FOG       64  64 100 CALM      30.25S VSB 3/4          
$$

MEZ002-015-021-024-NHZ003-005-008-011-012-014-VTZ005-008-220500-
NORTHERN NEW ENGLAND
  
CITY           SKY/WX    TMP DP  RH WIND       PRES   REMARKS
PORTLAND ME    FOG       54  54 100 W3        30.17F VSB 1/2          
BANGOR ME      CLOUDY    57  55  93 S5        30.14S FOG              
CONCORD NH     FOG       55  53  93 NW3       30.18R VSB 1/4          
MANCHESTER NH  MOCLDY    66  60  81 SW8       30.16S                  
NASHUA NH      MOCLDY    67  64  90 VRB3      30.18F                  
PORTSMOUTH NH  FOG       54  54 100 CALM      30.15F VSB 3/8          
JAFFREY NH     MOCLDY    63  60  90 VRB3      30.21S                  
KEENE NH       PTCLDY    59  59 100 CALM      30.20S                  
BURLINGTON VT  PTCLDY    57  49  74 NE6       30.21S                  
MT. WASHINGTON LGT RAIN  45  45 100 W74G87      N/A  VSB 0   WCI  30  
$$

NYZ052-076-220500-
EASTERN NEW YORK
  
CITY           SKY/WX    TMP DP  RH WIND       PRES   REMARKS
ALBANY         CLOUDY    60  53  77 W10       30.25R                  
NEW YORK CITY  CLOUDY    66  64  93 CALM      30.22S                  
$$
 
ANZALL-220500-
MARINE OBSERVATIONS
  
STATION/POSITION TIME  TEMP    WIND        PRES    VSBY  WAVE
                       AIR SEA DIR/SP/G                  HT/PER
                 (UTC) (F)     (DEG/KT/KT) (MB)    (MI)  (FT/S)
BOSTON BUOY      0350   63 58  200/ 12/ 14 1021.7F         3/ 9
BUZZARDS BAY     0300          220/ 12/ 12 1024.7F
NANTUCKET SOUND  0350      61  180/  4/  6   N/A           1
MASS BAY-STELLWA 0304   62 58  210/ 14/ 16 1021.6F  1 7/8  4/11
ISLE OF SHOALS   0300   59     210/  8/  9 1021.3R
S OF BLOCK IS    0326      63                N/A           3/ 9
$$

......................KEY.........................
  SKY/WX - SKY CONDITION/PRESENT WEATHER
  TMP    - TEMPERATURE IN FAHRENHEIT
  DWPT   - DEWPOINT IN FAHRENHEIT
  RH     - RELATIVE HUMIDITY IN PERCENT
  WIND   - DIRECTION AND SPEED IN MPH
  PRES   - MEAN SEA LEVEL PRESSURE IN INCHES OF HG
  WCI    - WIND CHILL INDEX
  VSB    - VISIBILITY IN MILES
  HX     - HEAT INDEX
  TC     - TEMPERATURE IN CELSIUS
  VRB    - VARIABLE WIND DIRECTION
  N/A    - NOT AVAILABLE
  
      

Other recent Regional Weather Roundups

Fri Oct 23, 4:04pm

Fri Oct 23, 3:04pm

Fri Oct 23, 2:05pm

Fri Oct 23, 1:04pm

Fri Oct 23, 12:04pm

Fri Oct 23, 11:04am

Fri Oct 23, 10:04am

Fri Oct 23, 9:04am

Fri Oct 23, 8:04am

Fri Oct 23, 7:04am

Fri Oct 23, 6:04am

Fri Oct 23, 5:04am

Fri Oct 23, 4:04am

Fri Oct 23, 3:04am

Fri Oct 23, 2:04am

Fri Oct 23, 1:04am

Fri Oct 23, 12:04am

Thu Oct 22, 11:04pm

Thu Oct 22, 10:04pm

Thu Oct 22, 9:05pm

Thu Oct 22, 8:04pm

Thu Oct 22, 7:05pm

Thu Oct 22, 6:04pm

Thu Oct 22, 5:04pm

Thu Oct 22, 4:05pm

Thu Oct 22, 3:04pm

Thu Oct 22, 2:05pm

Thu Oct 22, 1:04pm

Thu Oct 22, 12:04pm

Thu Oct 22, 11:04am

Thu Oct 22, 10:05am

Thu Oct 22, 9:04am

Thu Oct 22, 8:05am

Thu Oct 22, 7:04am

Thu Oct 22, 6:04am

Thu Oct 22, 5:04am

Thu Oct 22, 4:04am

Thu Oct 22, 3:04am

Thu Oct 22, 2:04am

Thu Oct 22, 1:04am

Wed Oct 21, 11:05pm

Wed Oct 21, 10:04pm

Wed Oct 21, 9:04pm

Wed Oct 21, 8:04pm

Wed Oct 21, 7:04pm

Wed Oct 21, 6:04pm

Wed Oct 21, 5:05pm

Wed Oct 21, 4:04pm

Wed Oct 21, 3:04pm

Wed Oct 21, 2:05pm

Wed Oct 21, 1:04pm

Wed Oct 21, 12:04pm

Wed Oct 21, 11:04am

Wed Oct 21, 10:04am

Wed Oct 21, 9:04am

Wed Oct 21, 8:04am

Wed Oct 21, 7:04am

Wed Oct 21, 6:04am

Wed Oct 21, 5:04am

Wed Oct 21, 4:04am

Wed Oct 21, 3:04am

Wed Oct 21, 2:04am

Wed Oct 21, 1:04am

Wed Oct 21, 12:04am

Tue Oct 20, 11:05pm

Tue Oct 20, 10:04pm

Tue Oct 20, 9:04pm

Tue Oct 20, 8:05pm

Tue Oct 20, 7:04pm

Tue Oct 20, 6:04pm

Tue Oct 20, 5:05pm

Tue Oct 20, 4:04pm

Tue Oct 20, 3:05pm

Tue Oct 20, 2:07pm

Tue Oct 20, 1:04pm

Tue Oct 20, 12:04pm

Tue Oct 20, 11:04am

Tue Oct 20, 10:05am

Tue Oct 20, 9:04am

Tue Oct 20, 8:04am

Tue Oct 20, 7:04am

Tue Oct 20, 6:04am

Tue Oct 20, 5:04am

Tue Oct 20, 4:04am

Tue Oct 20, 3:04am

Tue Oct 20, 2:04am

Tue Oct 20, 1:04am

Tue Oct 20, 12:04am

Mon Oct 19, 11:04pm

Mon Oct 19, 10:04pm

Mon Oct 19, 9:04pm

Mon Oct 19, 8:04pm

Mon Oct 19, 7:04pm

Mon Oct 19, 6:04pm

Mon Oct 19, 5:04pm

Mon Oct 19, 4:04pm

Mon Oct 19, 3:04pm

Mon Oct 19, 2:04pm

Mon Oct 19, 1:05pm

Mon Oct 19, 12:04pm

Mon Oct 19, 11:04am

Mon Oct 19, 10:04am

Mon Oct 19, 9:04am

Mon Oct 19, 8:04am

Mon Oct 19, 7:04am

Mon Oct 19, 6:04am

Mon Oct 19, 5:04am

Mon Oct 19, 4:04am

Mon Oct 19, 3:04am

Mon Oct 19, 2:04am

Mon Oct 19, 1:04am

Mon Oct 19, 12:05am

Sun Oct 18, 11:04pm

Sun Oct 18, 10:04pm

Sun Oct 18, 9:04pm

Sun Oct 18, 8:04pm

Sun Oct 18, 7:05pm

Sun Oct 18, 6:04pm

Sun Oct 18, 5:05pm

Sun Oct 18, 4:05pm

Sun Oct 18, 3:04pm

Sun Oct 18, 2:05pm

Sun Oct 18, 1:04pm

Sun Oct 18, 12:04pm

Sun Oct 18, 11:04am

Sun Oct 18, 10:04am

Sun Oct 18, 9:04am

Sun Oct 18, 8:04am

Sun Oct 18, 7:04am

Sun Oct 18, 6:04am

Sun Oct 18, 5:04am

Sun Oct 18, 4:04am

Sun Oct 18, 3:04am

Sun Oct 18, 2:04am

Sun Oct 18, 1:04am

Sun Oct 18, 12:04am

Sat Oct 17, 11:05pm

Sat Oct 17, 10:04pm

Sat Oct 17, 9:04pm

Sat Oct 17, 8:04pm

Sat Oct 17, 7:04pm

Sat Oct 17, 6:04pm

Sat Oct 17, 5:05pm

Sat Oct 17, 4:04pm

Sat Oct 17, 3:04pm

Sat Oct 17, 2:05pm

Sat Oct 17, 1:05pm

Sat Oct 17, 12:04pm

Sat Oct 17, 11:05am

Sat Oct 17, 10:04am

Sat Oct 17, 9:04am

Sat Oct 17, 8:04am

Sat Oct 17, 7:04am

Sat Oct 17, 6:04am

Sat Oct 17, 5:04am

Sat Oct 17, 4:04am

Sat Oct 17, 3:04am

Sat Oct 17, 2:04am

Sat Oct 17, 1:05am

Sat Oct 17, 12:04am

Fri Oct 16, 11:05pm

Fri Oct 16, 10:04pm

Fri Oct 16, 9:05pm

Fri Oct 16, 8:04pm

Fri Oct 16, 7:05pm

Fri Oct 16, 6:04pm

Fri Oct 16, 5:04pm

Meta data:

ID: 45d6428b-da0e-4c34-8091-cfd3c6c2b03d
Link: https://api.weather.gov/products/45d6428b-da0e-4c34-8091-cfd3c6c2b03d